Regional Weather Roundup
Issued by NWS

Home | Current Version | Previous Version | Graphics & Text | Print | Product List | Glossary On
Versions: 1 2 3 4 5 6 7 8 9 10 11 12 13 14 15 16 17 18 19 20 21 22 23 24 25 26 27 28 29 30 31 32 33 34 35 36 37 38 39 40 41 42 43 44 45 46 47 48 49 50
000
ASUS43 KBIS 150910
RWRND

NORTH DAKOTA REGIONAL WEATHER ROUNDUP
NATIONAL WEATHER SERVICE BISMARCK ND
400 AM CDT MON SEP 15 2014

NOTE: "FAIR" INDICATES FEW OR NO CLOUDS BELOW 12,000 FEET WITH NO
SIGNIFICANT WEATHER AND/OR OBSTRUCTIONS TO VISIBILITY.


NDZ001>003-009>011-017-151000-
NORTHWEST NORTH DAKOTA

CITY           SKY/WX    TMP DP  RH WIND       PRES   REMARKS
WILLISTON      CLEAR     35  32  88 CALM      30.22S
MINOT          CLOUDY    45  34  65 SW8       30.20S
$$

NDZ018>021-031>035-040>046-151000-
SOUTHWEST NORTH DAKOTA

CITY           SKY/WX    TMP DP  RH WIND       PRES   REMARKS
BISMARCK       CLEAR     34  33  96 CALM      30.24S
DICKINSON      CLEAR     36  32  85 S7        30.22F
GARRISON         N/A     37  34  89 W3        30.21F
HETTINGER ARPT PTCLDY    41  34  76 S3        30.25S
$$

NDZ004>008-012>016-024-026-027-054-151000-
NORTHEAST NORTH DAKOTA

CITY           SKY/WX    TMP DP  RH WIND       PRES   REMARKS
GRAND FORKS    CLEAR     40  38  93 W5        30.19R
DEVILS LAKE    CLEAR     37  30  75 W7        30.18S
$$

NDZ022-023-025-028>030-036>039-047>053-151000-
SOUTHEAST NORTH DAKOTA

CITY           SKY/WX    TMP DP  RH WIND       PRES   REMARKS
FARGO          CLOUDY    48  43  82 N3        30.18R
JAMESTOWN      CLEAR     42  39  89 NW5       30.21R
$$



USA.gov is the U.S. government's official web portal to all federal, state and local government web resources and services.